Location: York
(31.8935°S, 116.7682°E)
Time: 17:04:02
(UTC+08:00)

deb Explorer IX - Pass Details

Date: 04 October 2022
Orbit: 533 x 1057 km, 38.8° (Epoch: 30 November)

Event Time Altitude Azimuth Distance (km) Brightness Sun altitude
Rises 18:31:46 0° 280° (W) 3,674 ? -4.0°
Reaches altitude 10° 18:34:37 10° 275° (W) 2,658 ? -4.6°
Maximum altitude 18:40:53 57° 197° (SSW) 997 ? -5.9°
Drops below altitude 10° 18:46:16 10° 118° (ESE) 2,299 ? -7.1°
Enters shadow 18:47:46 - 115° (ESE) 2,838 ? -7.4°
Sets 18:48:35 0° 113° (ESE) 3,141 - -7.5°
